Location: *
(46.1833°N, 22.7667°E)
Time: 01:49:02
(UTC+00:00)

Meteor 1-21 - Pass Details

Date: 17 September 2019
Orbit: 843 x 889 km, 81.2° (Epoch: 15 October)

Event Time Altitude Azimuth Distance (km) Brightness Sun altitude
Rises 17:27:31 0° 348° (NNW) 3,413 7.7 -9.4°
Reaches altitude 10° 17:29:56 10° 347° (NNW) 2,475 7.0 -9.8°
Maximum altitude 17:35:32 81° 262° (W) 863 4.3 -10.8°
Drops below altitude 10° 17:41:09 10° 175° (S) 2,475 6.4 -11.7°
Sets 17:43:34 0° 174° (S) 3,412 7.1 -12.1°
